Location: ?
(35.4064°N, 139.3593°E)
Time: 16:29:00
(UTC+00:00)

ARIANE 6 FM1 Upper Stage - Pass Details

Date: 16 December 2025
Orbit: 522 x 610 km, 62.0° (Epoch: 12 January)

Event Time Altitude Azimuth Distance (km) Brightness Sun altitude
Exits shadow 20:54:53 - 244° (WSW) 2,309 5.4 -10.1°
Reaches altitude 10° 20:56:21 10° 254° (WSW) 1,798 4.8 -9.9°
Maximum altitude 20:59:43 25° 310° (NW) 1,100 3.6 -9.2°
Drops below altitude 10° 21:03:03 10° 8° (N) 1,774 5.1 -8.6°
Sets 21:05:31 0° 21° (NNE) 2,659 6.1 -8.1°
